When you browse on this site, cookies collect data to enhance your experience and personalize the content and advertising you see.
Visit our Privacy Policy to learn more. By continuing to use the site, you agree to this use of cookies and data.
  • In United Kingdom
  • List of Countries
  • For 7 days
  • Water Temperature
  • Weather Map
  • Weather Widgets
  • user-avatar
    Login

    Hourly Weather Aberfeldy

    Today, 22 August, Thursday

    Time Temperature Precipitation Wind Pressure Humidity
    00:00 +8°C° 0 mm 1 mps 733 mmHg 96%
    01:00 +8°C° 0 mm 1 mps 733 mmHg 96%
    02:00 +8°C° 0 mm 1 mps 733 mmHg 97%
    03:00 +8°C° 0 mm 1 mps 733 mmHg 97%
    04:00 +8°C° 0 mm 1 mps 733 mmHg 97%
    05:00 +8°C° 0 mm 1 mps 733 mmHg 98%
    06:00 +8°C° 0 mm 2 mps 733 mmHg 98%
    07:00 +9°C° 0.1 mm 2 mps 733 mmHg 95%
    08:00 +10°C° 0.1 mm 3 mps 733 mmHg 92%
    09:00 +11°C° 0.1 mm 4 mps 733 mmHg 89%
    10:00 +12°C° 0 mm 4 mps 733 mmHg 87%
    11:00 +12°C° 0 mm 5 mps 732 mmHg 85%
    12:00 +13°C° 0 mm 5 mps 732 mmHg 84%
    13:00 +13°C° 0.2 mm 5 mps 732 mmHg 85%
    14:00 +14°C° 0.2 mm 5 mps 732 mmHg 87%
    15:00 +14°C° 0.2 mm 5 mps 732 mmHg 88%
    16:00 +14°C° 0.4 mm 4 mps 732 mmHg 91%
    17:00 +13°C° 0.4 mm 4 mps 732 mmHg 95%
    18:00 +13°C° 0.4 mm 3 mps 732 mmHg 98%
    19:00 +13°C° 0.4 mm 3 mps 732 mmHg 98%
    20:00 +13°C° 0.4 mm 3 mps 733 mmHg 98%
    21:00 +13°C° 0.4 mm 3 mps 733 mmHg 98%
    22:00 +13°C° 0.4 mm 3 mps 733 mmHg 98%
    23:00 +13°C° 0.4 mm 3 mps 733 mmHg 98%

    Tomorrow, 23 August, Friday

    Time Temperature Precipitation Wind Pressure Humidity
    00:00 +13°C° 0.4 mm 3 mps 734 mmHg 98%
    01:00 +13°C° 0.5 mm 3 mps 734 mmHg 97%
    02:00 +13°C° 0.5 mm 3 mps 734 mmHg 97%
    03:00 +13°C° 0.5 mm 3 mps 734 mmHg 97%
    04:00 +13°C° 0.2 mm 3 mps 734 mmHg 97%
    05:00 +13°C° 0.2 mm 3 mps 734 mmHg 97%
    06:00 +12°C° 0.2 mm 3 mps 735 mmHg 97%
    07:00 +13°C° 0 mm 3 mps 735 mmHg 94%
    08:00 +14°C° 0 mm 4 mps 736 mmHg 90%
    09:00 +14°C° 0 mm 4 mps 736 mmHg 86%
    10:00 +15°C° 0 mm 4 mps 736 mmHg 82%
    11:00 +17°C° 0 mm 4 mps 737 mmHg 77%
    12:00 +18°C° 0 mm 4 mps 737 mmHg 73%
    13:00 +18°C° 0 mm 4 mps 737 mmHg 72%
    14:00 +18°C° 0 mm 3 mps 737 mmHg 72%
    15:00 +18°C° 0 mm 3 mps 737 mmHg 71%
    16:00 +18°C° 0 mm 3 mps 737 mmHg 75%
    17:00 +17°C° 0 mm 2 mps 737 mmHg 79%
    18:00 +17°C° 0 mm 2 mps 736 mmHg 83%
    19:00 +16°C° 0.1 mm 2 mps 737 mmHg 87%
    20:00 +15°C° 0.1 mm 1 mps 737 mmHg 90%
    21:00 +15°C° 0.1 mm 1 mps 737 mmHg 93%
    22:00 +15°C° 0.1 mm 1 mps 737 mmHg 95%
    23:00 +14°C° 0.1 mm 1 mps 736 mmHg 96%

    Day after tomorrow, 24 August, Saturday

    Time Temperature Precipitation Wind Pressure Humidity
    00:00 +14°C° 0.1 mm 1 mps 736 mmHg 98%
    01:00 +14°C° 0 mm 1 mps 736 mmHg 98%
    02:00 +14°C° 0 mm 1 mps 736 mmHg 98%
    03:00 +14°C° 0 mm 1 mps 736 mmHg 98%
    04:00 +13°C° 0 mm 1 mps 735 mmHg 98%
    05:00 +13°C° 0 mm 1 mps 735 mmHg 98%
    06:00 +13°C° 0 mm 1 mps 735 mmHg 98%
    07:00 +14°C° 0 mm 1 mps 735 mmHg 94%
    08:00 +14°C° 0 mm 2 mps 735 mmHg 91%
    09:00 +15°C° 0 mm 2 mps 735 mmHg 88%
    10:00 +16°C° 0 mm 2 mps 735 mmHg 85%
    11:00 +17°C° 0 mm 2 mps 735 mmHg 82%
    12:00 +18°C° 0 mm 3 mps 735 mmHg 78%
    13:00 +19°C° 0 mm 3 mps 735 mmHg 75%
    14:00 +20°C° 0 mm 4 mps 735 mmHg 72%
    15:00 +21°C° 0 mm 5 mps 735 mmHg 68%
    16:00 +20°C° 0.1 mm 3 mps 735 mmHg 72%
    17:00 +19°C° 0.1 mm 2 mps 735 mmHg 76%
    18:00 +19°C° 0.1 mm 1 mps 735 mmHg 80%
    19:00 +18°C° 0 mm 1 mps 735 mmHg 82%
    20:00 +16°C° 0 mm 1 mps 735 mmHg 83%
    21:00 +15°C° 0 mm 1 mps 735 mmHg 85%
    22:00 +15°C° 0 mm 1 mps 735 mmHg 84%
    23:00 +15°C° 0 mm 1 mps 735 mmHg 83%

    25 August, Sunday

    Time Temperature Precipitation Wind Pressure Humidity
    00:00 +14°C° 0 mm 0 mps 735 mmHg 82%
    01:00 +14°C° 0 mm 0 mps 735 mmHg 83%
    02:00 +14°C° 0 mm 0 mps 735 mmHg 83%
    03:00 +14°C° 0 mm 0 mps 735 mmHg 83%
    04:00 +14°C° 0 mm 0 mps 735 mmHg 84%
    05:00 +14°C° 0 mm 0 mps 735 mmHg 84%
    06:00 +14°C° 0 mm 0 mps 735 mmHg 84%
    07:00 +14°C° 0 mm 0 mps 735 mmHg 83%
    08:00 +15°C° 0 mm 0 mps 736 mmHg 83%
    09:00 +15°C° 0 mm 0 mps 736 mmHg 82%
    10:00 +19°C° 0 mm 1 mps 736 mmHg 76%
    11:00 +20°C° 0 mm 1 mps 736 mmHg 70%
    12:00 +22°C° 0 mm 1 mps 736 mmHg 64%
    13:00 +21°C° 0 mm 2 mps 736 mmHg 65%
    14:00 +22°C° 0 mm 3 mps 736 mmHg 65%
    15:00 +22°C° 0 mm 3 mps 736 mmHg 66%
    16:00 +21°C° 0.1 mm 3 mps 735 mmHg 71%
    17:00 +21°C° 0.1 mm 2 mps 735 mmHg 77%
    18:00 +20°C° 0.1 mm 2 mps 734 mmHg 82%
    19:00 +19°C° 0 mm 2 mps 734 mmHg 86%
    20:00 +18°C° 0 mm 1 mps 734 mmHg 90%
    21:00 +16°C° 0 mm 1 mps 734 mmHg 94%
    22:00 +15°C° 0 mm 1 mps 734 mmHg 95%
    23:00 +15°C° 0 mm 2 mps 734 mmHg 95%

    26 August, Monday

    Time Temperature Precipitation Wind Pressure Humidity
    00:00 +15°C° 0 mm 2 mps 734 mmHg 96%
    01:00 +14°C° 0 mm 2 mps 733 mmHg 96%
    02:00 +14°C° 0 mm 2 mps 733 mmHg 97%
    03:00 +14°C° 0 mm 2 mps 732 mmHg 97%
    04:00 +14°C° 0.1 mm 2 mps 733 mmHg 96%
    05:00 +14°C° 0.1 mm 2 mps 733 mmHg 95%
    06:00 +14°C° 0.1 mm 2 mps 733 mmHg 94%
    07:00 +14°C° 0.1 mm 2 mps 733 mmHg 94%
    08:00 +13°C° 0.1 mm 3 mps 734 mmHg 94%
    09:00 +13°C° 0.1 mm 3 mps 734 mmHg 93%
    10:00 +14°C° 0 mm 3 mps 735 mmHg 91%
    11:00 +16°C° 0 mm 3 mps 735 mmHg 89%
    12:00 +17°C° 0 mm 3 mps 736 mmHg 87%
    13:00 +17°C° 0 mm 3 mps 736 mmHg 88%
    14:00 +17°C° 0 mm 3 mps 736 mmHg 88%
    15:00 +17°C° 0 mm 3 mps 736 mmHg 89%
    16:00 +17°C° 0.1 mm 3 mps 736 mmHg 90%
    17:00 +17°C° 0.1 mm 2 mps 735 mmHg 91%
    18:00 +18°C° 0.1 mm 2 mps 735 mmHg 92%
    19:00 +17°C° 0.1 mm 2 mps 735 mmHg 94%
    20:00 +17°C° 0.1 mm 2 mps 735 mmHg 95%
    21:00 +17°C° 0.1 mm 3 mps 735 mmHg 97%
    22:00 +17°C° 0.1 mm 3 mps 735 mmHg 97%
    23:00 +17°C° 0.1 mm 3 mps 735 mmHg 97%

    27 August, Tuesday

    Time Temperature Precipitation Wind Pressure Humidity
    00:00 +17°C° 0.1 mm 3 mps 735 mmHg 96%
    01:00 +17°C° 0 mm 3 mps 735 mmHg 97%
    02:00 +17°C° 0 mm 2 mps 735 mmHg 97%
    03:00 +16°C° 0 mm 2 mps 735 mmHg 98%
    04:00 +16°C° 0 mm 2 mps 735 mmHg 98%
    05:00 +16°C° 0 mm 2 mps 735 mmHg 98%
    06:00 +16°C° 0 mm 2 mps 735 mmHg 98%
    07:00 +17°C° 0 mm 2 mps 735 mmHg 94%
    08:00 +18°C° 0 mm 3 mps 735 mmHg 90%
    09:00 +18°C° 0 mm 3 mps 735 mmHg 86%
    10:00 +19°C° 0 mm 3 mps 735 mmHg 80%
    11:00 +20°C° 0 mm 4 mps 734 mmHg 74%
    12:00 +21°C° 0 mm 4 mps 734 mmHg 68%
    13:00 +22°C° 0 mm 4 mps 734 mmHg 68%
    14:00 +22°C° 0 mm 4 mps 734 mmHg 68%
    15:00 +22°C° 0 mm 4 mps 733 mmHg 67%
    16:00 +21°C° 0 mm 3 mps 733 mmHg 72%
    17:00 +20°C° 0 mm 3 mps 733 mmHg 76%
    18:00 +19°C° 0 mm 2 mps 733 mmHg 81%
    19:00 +18°C° 0 mm 2 mps 733 mmHg 86%
    20:00 +18°C° 0 mm 1 mps 733 mmHg 91%
    21:00 +15°C° 0 mm 1 mps 732 mmHg 96%
    22:00 +16°C° 0 mm 1 mps 732 mmHg 96%
    23:00 +16°C° 0 mm 1 mps 732 mmHg 96%
    Show more